www.pogodaiklimat.ru

Погода и климат >> Архив погоды >> Гренландия >> Constable Pynt


ПОГОДА в Constable Pynt

  • Прогноз погоды в Constable Pynt
  • Монитор погоды в Constable Pynt

АРХИВ ПОГОДЫ в Constable Pynt

Время (UTC), дата Ветер
(напр.,м/с)
 
Видим.   Явления Облачность Т
(С)
Тd
(С)
f
(%)
Тe
(С)
Тes
(С)
Комфортность P
(гПа)
Po
(гПа)
Тmin
(С)
Tmax
(С)
R
(мм)
R24
(мм)
S
(см)
00 15.09 СЗ 2 н/о 10/0
[]
+1.6 -8.2 48 -1 -1 1001.9 1000.6
03 15.09 З 1 н/о 9/0
[]
+1.1 -7.1 54 +1 +1 1002.4 1001.0
06 15.09 З 2 н/о 9/9 1500 м
[]
+0.5 -6.4 60 -3 -3 1002.4 1001.0 0.0 +2.3
09 15.09 З 1-14
{14}
н/о 3/3 1500 м
[]
+0.9 -6.8 56 +1 +1 1003.1 1001.8
12 15.09 СЗ 5
{14}
н/о 3/3 1500 м
[]
+3.5 -7.6 44 -1 0 1003.6 1002.2
15 15.09 З 3 н/о 5/5 1500 м
[]
+4.7 -7.8 40 +2 +3 1003.6 1002.3
18 15.09 З 6 н/о ясно +2.9 -6.7 49 -2 -2 1003.9 1002.6 -0.7 +5.3
21 15.09 З 6 н/о ясно +1.0 -8.5 49 -5 -5 1005.3 1003.9
00 16.09 СЗ 1 н/о ясно +0.6 -6.3 60 -1 -1 1007.1 1005.7
03 16.09 З 2 н/о ясно -1.4 -5.8 72 -4 -4 1008.5 1007.1
06 16.09 С 4 н/о ясно -0.4 -5.1 71 -5 -5 1010.1 1008.7 -1.8 +3.1
09 16.09 С 2 н/о ясно +0.8 -6.4 59 -2 -1 1012.7 1011.4
12 16.09 СЗ 5 н/о 10/0 2000 м
[]
+2.5 -6.0 53 -2 -2 1014.8 1013.4
15 16.09 СЗ 6 н/о 10/0 2000 м
[]
+5.3 -9.0 35 +1 +2 1016.6 1015.3
18 16.09 СЗ 4 н/о 10/0 2000 м
[]
+4.9 -9.0 36 +2 +2 1018.5 1017.1 -1.2 +5.5
21 16.09 СЗ 4 н/о 10/0 2000 м
[]
+3.1 -8.0 44 -1 -1 1020.8 1019.4
00 17.09 СЗ 4 н/о 10/10 1500 м
[]
+3.2 -7.9 44 -1 -1 1022.4 1021.0
03 17.09 СЗ 4 н/о 10/10 450 м
[]
+1.7 -0.7 84 -3 -3 1024.2 1022.9
06 17.09 СЗ 6 н/о 10/10 930 м
[]
+2.2 -1.2 78 -4 -4 1025.7 1024.3 +0.7 +4.9
09 17.09 СЗ 8 н/о 10/10 600 м
[]
+2.4 -0.8 79 -4 -4 1027.6 1026.2
12 17.09 СЗ 7
{10}
н/о 10/10 1020 м
[]
+3.9 -1.2 69 -2 -2 1028.9 1027.6
15 17.09 СЗ 4 н/о 10/10 800 м
[]
+4.3 -1.4 66 +1 +1 1030.1 1028.8
18 17.09 С 6 н/о 9/9 960 м
[]
+3.5 -0.7 74 -2 -2 1030.6 1029.2 +3.2 +4.6
21 17.09 С 2 н/о 8/0 2000 м
[]
+2.7 -1.7 73 0 0 1031.2 1029.8
00 18.09 СЗ 2 н/о 10/0 2000 м
[]
+1.4 -1.4 82 -1 -1 1030.9 1029.5
03 18.09 Ю 2 н/о 10/0 2000 м
[]
+1.3 -1.3 83 -1 -1 1030.3 1028.9
06 18.09 штиль 0 н/о 8/8 1500 м
[]
-0.2 -1.7 90 -1 -1 1029.6 1028.2 -0.2 +3.8
09 18.09 СЗ 2 н/о 10/10 180 м
[]
+0.3 -2.1 84 -3 -3 1029.3 1027.9
12 18.09 В 1 н/о 10/10 90 м
[]
+0.4 -1.1 90 -0 -0 1028.7 1027.3
15 18.09 ЮВ 2 н/о ясно +1.5 -0.9 84 -1 +1 1027.3 1025.9
18 18.09 ЮВ 4 н/о 10/10 90 м
[]
+0.7 +0.2 96 -5 -5 1025.9 1024.5 -1.3 +2.6
21 18.09 С 1 н/о 10/0
[]
+0.8 -0.4 92 -1 -1 1025.2 1023.8
00 19.09 ЮВ 2 н/о 10/10 180 м
[]
+1.2 0.0 92 -2 -2 1023.9 1022.5
03 19.09 СЗ 2 н/о ?/? +0.6 +0.1 96 -3 -3 1022.7 1021.3
06 19.09 С 2 н/о 10/10 270 м
[]
+0.5 -0.8 91 -3 -3 1021.4 1020.0 +0.4 +1.4
09 19.09 С 3 н/о 9/9 330 м
[]
+0.6 -1.1 88 -4 -4 1021.4 1020.0
12 19.09 С 4 н/о 10/0
[]
+2.2 -1.6 76 -2 -2 1020.9 1019.5
15 19.09 С 5 н/о 10/10 870 м
[]
+2.7 -3.2 65 -2 -2 1020.2 1018.8
18 19.09 С 6 н/о 1/0
[]
+1.7 -3.5 68 -4 -4 1019.5 1018.1 -0.3 +3.4
21 19.09 СЗ 5 н/о 9/0
[]
+0.7 -4.2 70 -5 -5 1019.4 1018.0
00 20.09 СЗ 5 н/о 9/9 720 м
[]
0.0 -4.5 72 -6 -6 1019.3 1018.0
03 20.09 З 2 н/о 1/1 800 м
[]
-0.8 -4.1 78 -4 -4 1018.8 1017.4
06 20.09 С 5 н/о ясно -1.4 -8.7 58 -7 -7 1018.3 1016.9 -2.1 +1.8
09 20.09 С 3 н/о ясно -0.2 -8.5 54 -4 -4 1018.5 1017.1
12 20.09 С 3 н/о 5/0
[]
+0.7 -9.6 46 -3 -2 1019.3 1017.9
15 20.09 СВ 2 н/о 1/0
[]
+1.3 -9.7 44 -1 +1 1018.1 1016.7

 

Местоположение метеостанции Constable Pynt (Гренландия): широта 70.75 долгота -22.65 высота над уровнем моря 14 м.

В архиве по умолчанию представлена погода в Constable Pynt за последнюю неделю. Архивные данные за месяц целиком и за предыдущие месяцы, начиная с января 2011 года, Вы можете получить, выбрав интересующий диапазон дат из раскрывающегося списка и нажав кнопку "Ввод!".


*Определитесь, кто Вы:
робот инопланетянин человек

Внимание! Время в таблицах - всемирное. Для получения местного времени необходимо прибавить поправку, которая равна -1 ч.

Смотрите также архив погоды в соседних городах и на ближайших метеорологических станциях:

Погода в Ittoqqortoormiit (Гренландия) (40 км)
Погода в Daneborg (Гренландия) (403 км)
Погода на Хорнбьяргсвити (Исландия) (482 км)
Погода в Aputiteq Ads (Гренландия) (502 км)
Погода на Гримсее (Исландия) (505 км)
Погода на Ян-Майене (Норвегия) (510 км)
Погода в Болюнгарвик Шелфви (Исландия) (511 км)
Погода в Болунгарвике (Исландия) (512 км)
Погода в Блёндюоусе (Исландия) (574 км)
Погода в Бергстадире (Исландия) (575 км)

Пояснения к столбцам:

Ветер - указаны скорость ветра в м/с - средняя за 10 мин, порывы в срок и между сроками (в фигурных скобках) и направление, откуда дует ветер: С - северный, СВ - северо-восточный, В - восточный, ЮВ - юго-восточный, Ю - южный, ЮЗ - юго-западный, З - западный, СЗ - северо-западный.
Видимость - горизонтальная дальность видимости в метрах или километрах. При видимости от 1 до 10 км при отсутствии осадков обычно наблюдается дымка, при ухудшении видимости до 1 км и менее - туман. В сухую погоду видимость может ухудшаться дымом, пылью или мглою.
Явления - указаны атмосферные явления, наблюдавшиеся в срок или в последний час перед сроком; фигурными скобками обозначены явления, наблюдавшиеся между сроками (за 1-3 часа до срока); квадратными скобками обозначены град или гололедные отложения с указанием их диаметра в мм.
Облачность - указаны через наклонную черту общая и нижняя облачность в баллах и высота нижней границы облаков в метрах; квадратными скобками обозначены формы облаков: Ci - перистые, Cs - перисто-слоистые, Cc - перисто-кучевые, Ac - высококучевые, As - высокослоистые, Sc - слоисто-кучевые, Ns - слоисто-дождевые, Cu - кучевые, Cb - кучево-дождевые. Подробнее классификацию облаков см. в Атласе облаков (PDF).
T - Температура воздуха - температура, измеренная на высоте 2 м над землей.
Td - Температура точки росы - температура, при понижении до которой содержащийся в воздухе водяной пар достигнет насыщения.
f - Относительная влажность воздуха - влажноcть воздуха, измеренная на высоте 2 м над землей.
Te - Эффективная температура - температура, которую ощущает одетый по сезону человек в тени. Характеристика душности погоды. При расчете учитывается влияние влажности воздуха и скорости ветра на теплоощущения человека.
Tes - Эффективная температура на солнце - температура, которую ощущает человек, с поправкой на солнечный нагрев. Характеристика знойности погоды. Зависит от высоты солнца над горизонтом, облачности и скорости ветра. Ночью, в пасмурную погоду, а также при ветре 12 м/с и более поправка равна нулю.
P - Атмосферное давление - приведенное к уровню моря атмосферное давление.
Po - Атмосферное давление - измеренное на уровне метеостанции атмосферное давление.
Tmin - Минимальная температура - минимум температуры воздуха на высоте 2 м над землей.
Tmax - Максимальная температура - максимум температуры воздуха на высоте 2 м над землей.
R - Количество осадков - Количество выпавших осадков за период времени, мм. При наведении курсора мыши на число - период времени, за который выпало указанное количество осадков.
R24 - Количество осадков - Количество выпавших осадков за 24 часа, мм.
S - Снежный покров - Высота снежного покрова, см. При наведении курсора мыши на число - состояние снежного покрова и степень покрытия местности в баллах.